Weather in Sherlovaya Gora

Russia / Zabaykalsky Krai     50˚31′26″N   116˚19′07″E
temp.,
°C
wind,
m/s
gust,
m/s
humid.,
%
clouds,
%
prec.,
mm/h
press.,
hPa
HPBL,
m
28 november, sat
sat2800:00−17˚nnw22900 0.0 103826
03:00−17˚nw22890 0.0 103820
06:00−17˚nnw22910 0.0 103721
09:00−18˚nw22940 0.0 103620
12:00−14˚nw24770 0.0 1035270
15:00−12˚nw36660 0.0 1033385
18:00−15˚n23800 0.0 103343
21:00−17˚nnw23910 0.0 103344
29 november, sun
sun2900:00−17˚nnw22910 0.0 103326
03:00−17˚nnw22900 0.0 103326
06:00−18˚nnw22910 0.0 103426
09:00−18˚nnw23910 0.0 103433
12:00−15˚nnw47730 0.0 1034275
15:00−13˚nnw48610 0.0 1033493
18:00−16˚nnw34770 0.0 103561
21:00−17˚nnw23830 0.0 103533
30 november, mon
mon3000:00−17˚nw22860 0.0 103623
03:00−18˚nnw22870 0.0 103620
06:00−18˚nw22870 0.0 103620
09:00−19˚nw12880 0.0 103720
12:00−15˚nw22720 0.0 1037192
15:00−13˚nw23630 0.0 1036322
18:00−16˚nw22770 0.0 103720
21:00−17˚nw12850 0.0 103720
1 december, tue
tue100:00−18˚w11890 0.0 103720
03:00−17˚w119410 0.0 103620
06:00−17˚w129751 0.0 103620
09:00−17˚w129870 0.1 103521
12:00−13˚wnw378588 0.0 1034444
15:00−12˚wnw477293 0.1 1033625
18:00−16˚nw238639 0.0 103322
21:00−17˚nnw229019 0.0 103320
2 december, wed
wed200:00−17˚nnw229250 0.0 103320
03:00−18˚nnw129159 0.0 103220
06:00−18˚nnw128979 0.0 103220
09:00−18˚nnw228978 0.0 103322
12:00−15˚nw347110 0.0 1033236
15:00−13˚nw35635 0.0 1032336
18:00−16˚nw33800 0.0 103351
21:00−16˚nw34880 0.0 103375